Home > Weather > Reutlingen > Past weeks

Flag for Germany Weather for the Past 2 Weeks in Reutlingen, Baden-Württemberg, Germany

Now
41 °F

Partly sunny.


Feels Like: 38 °F
Forecast: 38 / 46 °F
Wind: 5 mph from East

Location: Stuttgart-Echterdingen

Current Time: Feb 13, 2016 at 12:03:04 PM

Latest Report: Feb 13, 2016 at 11:20 AM


Visibility: N/A

Pressure: 29.30 "Hg

Humidity: 87%

Dew point: 37 °F

Location of ReutlingenLocation

Historic Weather in Reutlingen — Graph

°F

Reutlingen Temperature Yesterday

Maximum temperature yesterday: 43 °F (at 12:20 PM)
Minimum temperature yesterday: 32 °F (at 7:50 AM)
Average temperature yesterday: 38 °F

High & Low Weather Summary for the Past Weeks

 TemperatureHumidityPressure
High57 °F (Feb 6, 1:20 PM)100% (Jan 31, 4:50 PM)30.45 "Hg (Jan 31, 4:50 PM)
Low32 °F (Feb 6, 4:20 AM)44% (Feb 6, 1:20 PM)29.15 "Hg (Feb 9, 5:50 PM)
Average42 °F80%29.90 "Hg
* Reported Jan 29 10:20 AM — Feb 13 10:50 AM, Reutlingen, Weather by CustomWeather, © 2016

Note: Actual official high and low records may vary slightly from our data, if they occured in-between our weather recording intervals... More about our weather records

Advertising

Reutlingen Weather History for the Previous 24 Hours

 ConditionsComfort  
Time TempWeatherWind HumidityBarometerVisibility
10:50 AM
Sat, Feb 13
39 °FPartly sunny.3 mph87%29.30 "HgN/A
10:20 AM39 °FScattered clouds.5 mph87%29.33 "HgN/A
9:50 AM39 °FBroken clouds.6 mph87%29.33 "HgN/A
9:20 AM39 °FBroken clouds.5 mph87%29.33 "HgN/A
8:50 AM39 °FPartly sunny.3 mph87%29.33 "HgN/A
8:20 AM37 °FPartly sunny.3 mph93%29.33 "HgN/A
7:50 AM37 °FDrizzle. Partly sunny.5 mph93%29.33 "HgN/A
7:20 AM37 °FPassing clouds.2 mph93%29.33 "HgN/A
6:50 AM37 °FPartly cloudy.2 mph87%29.33 "HgN/A
6:20 AM37 °FPassing clouds.2 mph87%29.33 "HgN/A
5:50 AM37 °FPassing clouds.2 mph87%29.33 "HgN/A
5:20 AM37 °FPassing clouds.2 mph87%29.33 "HgN/A
4:20 AM37 °FLight rain. Passing clouds.7 mph87%29.33 "HgN/A
3:20 AM37 °FPassing clouds.3 mph87%29.33 "HgN/A
2:50 AM37 °FPassing clouds.1 mph87%29.33 "HgN/A
2:20 AM37 °FPassing clouds.2 mph87%29.33 "HgN/A
1:50 AM37 °FPassing clouds.1 mph81%29.30 "HgN/A
1:20 AM37 °FPassing clouds.2 mph81%29.30 "HgN/A
12:50 AM37 °FPassing clouds.2 mph81%29.30 "HgN/A
12:20 AM37 °FPassing clouds.1 mph81%29.30 "HgN/A
11:50 PM
Fri, Feb 12
37 °FLight rain. Passing clouds.3 mph81%29.30 "HgN/A
11:20 PM39 °FPartly cloudy.6 mph75%29.33 "HgN/A
10:20 PM39 °FPassing clouds.6 mph70%29.33 "HgN/A
9:50 PM39 °FPartly cloudy.5 mph70%29.33 "HgN/A
9:20 PM39 °FPassing clouds.5 mph70%29.33 "HgN/A
8:50 PM39 °FPartly cloudy.2 mph75%29.33 "HgN/A
8:20 PM39 °FPartly cloudy.5 mph70%29.36 "HgN/A
7:50 PM39 °FPartly cloudy.3 mph75%29.36 "HgN/A
7:20 PM39 °FPartly cloudy.6 mph75%29.36 "HgN/A
6:50 PM39 °FPartly cloudy.3 mph75%29.36 "HgN/A
6:20 PM39 °FClear.3 mph75%29.36 "Hg10 mi
5:50 PM39 °FClear.5 mph70%29.36 "Hg10 mi
5:20 PM41 °FSunny.6 mph66%29.36 "Hg10 mi
4:50 PM41 °FPartly sunny.8 mph66%29.36 "HgN/A
4:20 PM43 °FPartly sunny.8 mph57%29.36 "HgN/A
3:50 PM43 °FPartly sunny.7 mph66%29.39 "HgN/A
3:20 PM43 °FBroken clouds.7 mph57%29.39 "HgN/A
2:50 PM41 °FBroken clouds.8 mph61%29.42 "HgN/A
2:20 PM43 °FPartly sunny.8 mph57%29.42 "HgN/A
1:50 PM43 °FScattered clouds.8 mph61%29.45 "HgN/A
1:20 PM43 °FPassing clouds.8 mph53%29.47 "HgN/A
12:50 PM43 °FPassing clouds.6 mph57%29.50 "HgN/A
12:20 PM43 °FScattered clouds.7 mph57%29.50 "HgN/A
Weather by CustomWeather, © 2016

See weather overviewHow to use our weather pages